Tributaries of Vltava river

river Berounka - water gauge Beroun

Date and time (UTC) H (cm) Q (m³/s)
19. 5. 2021 03:50 165 71.7
19. 5. 2021 03:00 165 72
19. 5. 2021 02:00 165 72
19. 5. 2021 01:00 165 72
19. 5. 2021 00:00 165 72
18. 5. 2021 23:00 165 72
18. 5. 2021 22:00 165 72
18. 5. 2021 21:00 165 72
18. 5. 2021 20:00 166 73
18. 5. 2021 19:00 166 73
18. 5. 2021 18:00 167 74
18. 5. 2021 17:00 168 75
18. 5. 2021 16:00 167 74
18. 5. 2021 15:00 167 74

H - water level, Q - discharge

river Sázava - water gauge Nespeky

Date and time (UTC) H (cm) Q (m³/s)
19. 5. 2021 03:50 173 56.5
19. 5. 2021 03:00 177 59
19. 5. 2021 02:00 181 61
19. 5. 2021 01:00 184 63
19. 5. 2021 00:00 186 64
18. 5. 2021 23:00 186 64
18. 5. 2021 22:00 187 65
18. 5. 2021 21:00 187 65
18. 5. 2021 20:00 187 65
18. 5. 2021 19:00 188 65
18. 5. 2021 18:00 189 66
18. 5. 2021 17:00 189 66
18. 5. 2021 16:00 190 66
18. 5. 2021 15:00 191 67

H - water level, Q - discharge

river Otava - water gauge Písek

Date and time (UTC) H (cm) Q (m³/s)
19. 5. 2021 03:50 147 49.7
19. 5. 2021 03:00 146 49
19. 5. 2021 02:00 147 50
19. 5. 2021 01:00 147 50
19. 5. 2021 00:00 147 50
18. 5. 2021 23:00 148 50
18. 5. 2021 22:00 149 51
18. 5. 2021 21:00 150 52
18. 5. 2021 20:00 150 52
18. 5. 2021 19:00 151 52
18. 5. 2021 18:00 151 52
18. 5. 2021 17:00 152 53
18. 5. 2021 16:00 152 53
18. 5. 2021 15:00 152 53

H - water level, Q - discharge

river Lužnice - water gauge Bechyně

Date and time (UTC) H (cm) Q (m³/s)
19. 5. 2021 03:40 199 50
19. 5. 2021 03:00 200 51
19. 5. 2021 02:00 201 51
19. 5. 2021 01:00 201 51
19. 5. 2021 00:00 202 52
18. 5. 2021 23:00 202 52
18. 5. 2021 22:00 203 53
18. 5. 2021 21:00 203 53
18. 5. 2021 20:00 204 53
18. 5. 2021 19:00 204 53
18. 5. 2021 18:00 205 54
18. 5. 2021 17:00 205 54
18. 5. 2021 16:00 205 54
18. 5. 2021 15:00 206 55

H - water level, Q - discharge
Source data
Labe Basin Vltava Basin Povodí Moravy ČHMÚ